Hourly Data Report for July 19, 2021

CAPE RACE (AUT)
NEWFOUNDLAND
Current Station Operator: ECCC - MSC

46°39'36.000" N
53°04'35.000" W
26.50 m
8401000
71800
WRA

Download Data

Hourly Data (July 2021)
Hourly Data Report for July 19, 2021
TIME
LST
Temp Definition
°C
Dew Point Definition
°C
Rel Hum Definition
%
Precip. Amount Definition
mm

Wind Dir Definition
10's deg

Wind Spd Definition
km/h
Visibility Definition
km
Stn Press Definition
kPa
Hmdx Definition


Wind Chill Definition


Weather Definition


00:30 12.4 LegendMM LegendMM 0.0 26 28   101.29     LegendNANA
01:30 12.5 LegendMM LegendMM 0.0 26 26   101.30     LegendNANA
02:30 13.0 LegendMM LegendMM 0.0 2 11   101.34     LegendNANA
03:30 12.1 LegendMM LegendMM 0.0 25 6   101.36     LegendNANA
04:30 11.0 LegendMM LegendMM 0.0 25 4   101.40     LegendNANA
05:30 12.3 LegendMM LegendMM 0.0 27 5   101.45     LegendNANA
06:30 15.8 LegendMM LegendMM 0.0 3 6   101.47     LegendNANA
07:30 16.2 LegendMM LegendMM 0.0 4 8   101.51     LegendNANA
08:30 17.2 LegendMM LegendMM 0.0 3 9   101.54     LegendNANA
09:30 17.2 LegendMM LegendMM 0.0 3 8   101.59     LegendNANA
10:30 16.3 LegendMM LegendMM 0.0 17 7   101.61     LegendNANA
11:30 16.7 LegendMM LegendMM 0.0 9 7   101.59     LegendNANA
12:30 16.9 LegendMM LegendMM 0.0 8 8   101.57     LegendNANA
13:30 17.6 LegendMM LegendMM 0.0 7 6   101.55     LegendNANA
14:30 16.9 LegendMM LegendMM 0.0 8 7   101.53     LegendNANA
15:30 17.5 LegendMM LegendMM 0.0 13 7   101.54     LegendNANA
16:30 16.2 LegendMM LegendMM 0.0 19 6   101.56     LegendNANA
17:30 15.1 LegendMM LegendMM 0.0 19 10   101.53     LegendNANA
18:30 14.5 LegendMM LegendMM 0.0 20 13   101.53     LegendNANA
19:30 14.3 LegendMM LegendMM 0.0 21 11   101.55     LegendNANA
20:30 14.2 LegendMM LegendMM 0.0 21 7   101.53     LegendNANA
21:30 14.3 LegendMM LegendMM 0.0 34 4   101.52     LegendNANA
22:30 14.0 LegendMM LegendMM 0.0 16 6   101.51     LegendNANA
23:30 14.1 LegendMM LegendMM 0.0 16 6   101.50     LegendNANA

Notes on Data Quality.

Legend

  • E = Estimated
  • M = Missing
  • NA = Not Available*
  • [empty] = Indicates an unobserved value
Date modified: